Location: Lombard
(41.8800°N, 88.0080°W)
Time: 09:28:36
(UTC-06:00)

Tiros 1 - All Passes

Search period start: 27 January 2023 00:00
Search period end: 06 February 2023 00:00
Orbit: 628 x 662 km, 48.4° (Epoch: 26 January)

Date Brightness Start Highest point End Pass type
(mag) Time Alt. Az. Time Alt. Az. Time Alt. Az.
27 Jan - 01:34:07 10° S 01:37:35 21° SE 01:41:03 10° E night (unlit)
27 Jan - 03:14:37 10° WSW 03:19:16 89° NW 03:23:59 10° ENE visible
27 Jan - 04:57:23 10° W 05:01:48 40° N 05:06:16 10° ENE visible
27 Jan - 06:40:10 10° WNW 06:44:40 42° NNE 06:49:12 10° E visible
27 Jan - 08:22:22 10° WNW 08:27:07 78° SSW 08:31:53 10° SE daylight
27 Jan - 10:05:38 10° W 10:08:44 17° SW 10:11:50 10° S daylight
28 Jan - 01:58:17 10° SSW 02:02:40 44° SE 02:07:06 10° ENE night (unlit)
28 Jan - 03:40:13 10° W 03:44:47 55° NNW 03:49:26 10° ENE visible
28 Jan - 05:23:12 10° WNW 05:27:34 37° N 05:31:58 10° ENE visible
28 Jan - 07:05:39 10° WNW 07:10:19 59° NNE 07:15:02 10° ESE daylight
28 Jan - 08:47:58 10° WNW 08:52:24 40° SW 08:56:50 10° SSE daylight
29 Jan - 00:43:07 10° S 00:46:20 19° SE 00:49:35 10° E night (unlit)
29 Jan - 02:23:20 10° WSW 02:27:58 85° SSE 02:32:40 10° ENE night (unlit)
29 Jan - 04:06:03 10° W 04:10:28 40° N 04:14:56 10° ENE visible
29 Jan - 05:48:52 10° WNW 05:53:20 41° N 05:57:49 10° E visible
29 Jan - 07:31:04 10° WNW 07:35:49 84° SSW 07:40:35 10° ESE daylight
29 Jan - 09:14:08 10° W 09:17:29 19° SW 09:20:50 10° S daylight
30 Jan - 01:07:06 10° SSW 01:11:24 40° SE 01:15:45 10° ENE night (unlit)
30 Jan - 02:48:53 10° W 02:53:28 58° NNW 02:58:06 10° ENE visible
30 Jan - 04:31:53 10° WNW 04:36:13 36° N 04:40:36 10° ENE visible
30 Jan - 06:14:21 10° WNW 06:18:59 56° NNE 06:23:40 10° E visible
30 Jan - 07:56:38 10° WNW 08:01:07 43° SW 08:05:38 10° SSE daylight
30 Jan - 23:52:08 10° S 23:55:05 17° SE 23:58:04 10° E night (unlit)
31 Jan - 01:32:04 10° SW 01:36:40 79° SSE 01:41:21 10° ENE night (unlit)
31 Jan - 03:14:42 10° W 03:19:07 42° N 03:23:35 10° ENE visible
31 Jan - 04:57:33 10° WNW 05:01:58 40° N 05:06:26 10° E visible
31 Jan - 06:39:46 10° WNW 06:44:30 90° WSW 06:49:16 10° ESE daylight
31 Jan - 08:22:41 10° W 08:26:13 21° SW 08:29:46 10° S daylight
01 Feb - 00:15:56 10° SSW 00:20:08 36° SE 00:24:23 10° ENE night (unlit)
01 Feb - 01:57:33 10° WSW 02:02:08 61° NNW 02:06:47 10° ENE night (unlit)
01 Feb - 03:40:32 10° WNW 03:44:52 36° N 03:49:14 10° ENE visible
01 Feb - 05:23:03 10° WNW 05:27:39 53° NNE 05:32:17 10° E visible
01 Feb - 07:05:17 10° WNW 07:09:49 48° SW 07:14:23 10° SE daylight
01 Feb - 23:01:12 10° SSE 23:03:50 15° SE 23:06:29 10° E night (unlit)
02 Feb - 00:40:47 10° SW 00:45:22 73° SSE 00:50:01 10° ENE night (unlit)
02 Feb - 02:23:20 10° W 02:27:46 43° NNW 02:32:14 10° ENE night (unlit)
02 Feb - 04:06:14 10° WNW 04:10:37 39° N 04:15:02 10° ENE visible
02 Feb - 05:48:27 10° WNW 05:53:11 84° NNE 05:57:55 10° ESE visible
02 Feb - 07:31:14 10° W 07:34:57 23° SW 07:38:41 10° S daylight
02 Feb - 23:24:45 10° SSW 23:28:51 33° SE 23:32:59 10° ENE night (unlit)
03 Feb - 01:06:12 10° WSW 01:10:48 65° NNW 01:15:26 10° ENE night (unlit)
03 Feb - 02:49:11 10° WNW 02:53:29 37° N 02:57:51 10° ENE visible
03 Feb - 04:31:44 10° WNW 04:36:18 50° NNE 04:40:54 10° E visible
03 Feb - 06:13:57 10° WNW 06:18:31 52° SW 06:23:07 10° SE visible
03 Feb - 22:10:21 10° SSE 22:12:35 13° SE 22:14:50 10° ESE night (unlit)
03 Feb - 23:49:29 10° SW 23:54:03 67° SSE 23:58:40 10° ENE night (unlit)
04 Feb - 01:31:58 10° W 01:36:25 44° NNW 01:40:53 10° ENE night (unlit)
04 Feb - 03:14:53 10° WNW 03:19:15 38° N 03:23:38 10° ENE visible
04 Feb - 04:57:08 10° WNW 05:01:50 79° NNE 05:06:34 10° ESE visible
04 Feb - 06:39:48 10° W 06:43:40 25° SW 06:47:33 10° SSE daylight
04 Feb - 22:33:35 10° SSW 22:37:34 29° SE 22:41:34 10° ENE night (unlit)
05 Feb - 00:14:52 10° WSW 00:19:28 70° NNW 00:24:06 10° ENE night (unlit)
05 Feb - 01:57:48 10° WNW 02:02:07 37° N 02:06:28 10° ENE night (unlit)
05 Feb - 03:40:24 10° WNW 03:44:56 48° NNE 03:49:29 10° E visible
05 Feb - 05:22:36 10° WNW 05:27:12 57° SW 05:31:49 10° SE visible
05 Feb - 07:07:07 10° WSW 07:08:36 11° SW 07:10:05 10° SSW daylight
05 Feb - 21:19:36 10° SSE 21:21:20 12° SE 21:23:04 10° ESE night (unlit)
05 Feb - 22:58:13 10° SW 23:02:44 61° SE 23:07:19 10° ENE night (unlit)
